Location: Adrasan
(36.3319°N, 30.4314°E)
Time: 09:50:58
(UTC+00:00)

Meteor 1-10 Rocket - Pass Details

Date: 29 May 2024
Orbit: 834 x 910 km, 81.3° (Epoch: 16 June)

Event Time Altitude Azimuth Distance (km) Brightness Sun altitude
Rises 17:34:44 0° 158° (SSE) 3,455 6.9 -5.3°
Reaches altitude 10° 17:37:29 10° 147° (SSE) 2,508 6.1 -5.8°
Maximum altitude 17:42:16 29° 90° (E) 1,540 5.1 -6.6°
Drops below altitude 10° 17:46:59 10° 32° (NNE) 2,480 6.7 -7.4°
Sets 17:49:41 0° 22° (NNE) 3,410 7.5 -7.9°
